Location: ?????????
(55.6553°N, 38.9075°E)
Time: 17:51:29
(UTC+00:00)

Cosmos 1975 Rocket - Pass Details

Date: 18 October 2019
Orbit: 602 x 635 km, 82.5° (Epoch: 13 November)

Event Time Altitude Azimuth Distance (km) Brightness Sun altitude
Exits shadow 00:53:13 54° 15° (NNE) 767 3.6 -26.6°
Drops below altitude 10° 00:56:42 10° 13° (NNE) 2,013 6.1 -26.1°
Sets 00:58:56 0° 13° (NNE) 2,920 7.0 -25.9°
